Change the Weather History Date:

Tuesday, August 27, 2013

  Actual Average Record
Temperature  
Mean Temperature 81 °F 67 °F  
Max Temperature 93 °F 79 °F 103 °F (1973)
Min Temperature 68 °F 55 °F 39 °F (1986)
Degree Days  
Heating Degree Days 0 2  
Month to date heating degree days 23 20  
Since 1 June heating degree days 118 95  
Since 1 July heating degree days 49 33  
Cooling Degree Days 16 4  
Month to date cooling degree days 137 143  
Year to date cooling degree days 485 465  
Since 1 June cooling degree days 460 442  
Growing Degree Days 30 (Base 50)    
Moisture  
Dew Point 71 °F    
Average Humidity 74    
Maximum Humidity 100    
Minimum Humidity 47    
Precipitation  
Precipitation 0.00 in 0.08 in 0.65 in (1936)
Month to date precipitation 0.64 2.10  
Year to date precipitation 18.36 16.40  
Sea Level Pressure  
Sea Level Pressure 29.79 in    
Wind  
Wind Speed 4 mph (North)    
Max Wind Speed 10 mph    
Max Gust Speed 15 mph    
T = Trace of Precipitation, MM = Missing Value Source: NWS Daily Summary

Daily Weather History Graph

Daily Weather History Graph

Search for Another Location

Airport or City:

Trip Planner

Search our weather history database for the weather conditions in past years. The results will help you decide how hot, cold, wet, or windy it might be!

Date:

Astronomy

Aug. 27, 2013 Rise Set
Actual Time 6:43 AM CDT 8:14 PM CDT
Civil Twilight 6:12 AM CDT 8:45 PM CDT
Nautical Twilight 5:34 AM CDT 9:23 PM CDT
Astronomical Twilight 4:53 AM CDT 10:03 PM CDT
Moon 11:45 PM CDT (8/27) 2:05 PM CDT (8/27)
Length of Visible Light 14h 33m
Length of Day
13h 31m
Waning Gibbous, 57% of the Moon is Illuminated
Aug 27
Waning Gibbous
Aug 28
Last Quarter
Sep 5
New
Sep 12
First Quarter
Sep 19
Full

Hourly Weather History & Observations

Time (CDT) Temp. Heat Index Dew Point Humidity Pressure Visibility Wind Dir Wind Speed Gust Speed Precip Events Conditions
12:56 AM 73.9 °F - 72.0 °F 93% 29.73 in - NNW 4.6 mph - N/A   Unknown
1:56 AM 73.0 °F - 71.1 °F 93% 29.72 in - NNW 5.8 mph - N/A   Unknown
2:56 AM 72.0 °F - 70.0 °F 93% 29.72 in - North 4.6 mph - N/A   Unknown
3:56 AM 72.0 °F - 71.1 °F 97% 29.72 in - NNW 5.8 mph - N/A   Unknown
4:56 AM 72.0 °F - 71.1 °F 97% 29.72 in - North 4.6 mph - N/A   Unknown
5:56 AM 71.1 °F - 70.0 °F 96% 29.74 in - NNW 5.8 mph - N/A   Unknown
6:56 AM 70.0 °F - 69.1 °F 97% 29.76 in - NNW 5.8 mph - N/A   Unknown
7:56 AM 72.0 °F - 70.0 °F 93% 29.78 in - NNW 8.1 mph - N/A   Unknown
8:56 AM 73.9 °F - 70.0 °F 87% 29.80 in - NNW 6.9 mph - N/A   Unknown
9:56 AM 77.0 °F - 72.0 °F 84% 29.80 in - North 5.8 mph - N/A   Unknown
10:56 AM 82.9 °F 89.4 °F 73.9 °F 74% 29.81 in - North 4.6 mph - N/A   Unknown
11:56 AM 86.0 °F 93.8 °F 73.9 °F 67% 29.82 in - NNE 6.9 mph - N/A   Unknown
12:56 PM 89.1 °F 96.0 °F 72.0 °F 57% 29.81 in - NE 9.2 mph - N/A   Unknown
1:56 PM 90.0 °F 96.4 °F 71.1 °F 54% 29.80 in - Variable 5.8 mph - N/A   Unknown
2:56 PM 91.9 °F 97.4 °F 70.0 °F 48% 29.80 in - NE 5.8 mph - N/A   Unknown
3:56 PM 91.9 °F 97.4 °F 70.0 °F 48% 29.79 in - Variable 4.6 mph - N/A   Unknown
4:56 PM 91.9 °F 97.4 °F 70.0 °F 48% 29.79 in - ENE 5.8 mph - N/A   Unknown
5:56 PM 91.0 °F 95.2 °F 68.0 °F 47% 29.80 in - ENE 5.8 mph - N/A   Unknown
6:56 PM 90.0 °F 95.4 °F 70.0 °F 52% 29.81 in - Calm Calm - N/A   Unknown
7:56 PM 82.9 °F 89.4 °F 73.9 °F 74% 29.83 in - NE 3.5 mph - N/A   Unknown
8:56 PM 75.0 °F - 72.0 °F 90% 29.85 in - Calm Calm - N/A   Unknown
9:56 PM 73.0 °F - 70.0 °F 90% 29.86 in - Calm Calm - N/A   Unknown
10:56 PM 71.1 °F - 68.0 °F 90% 29.86 in - Calm Calm - N/A   Unknown
11:56 PM 70.0 °F - 66.9 °F 90% 29.88 in - Calm Calm - N/A   Unknown